Regional Weather Roundup
Issued by NWS

Home | Current Version | Previous Version | Graphics & Text | Print | Product List | Glossary On
Versions: 1 2 3 4 5 6 7 8 9 10 11 12 13 14 15 16 17 18 19 20 21 22 23 24 25 26 27 28 29 30 31 32 33 34 35 36 37 38 39 40 41 42 43 44 45 46 47 48 49 50
106
ASUS43 KLSX 250907
RWRMO

WEATHER SUMMARY FOR MISSOURI
NATIONAL WEATHER SERVICE SPRINGFIELD MO
400 AM CDT SUN JUN 25 2017

NOTE: "FAIR" INDICATES FEW OR NO CLOUDS BELOW 12,000 FEET WITH NO
       SIGNIFICANT WEATHER AND/OR OBSTRUCTIONS TO VISIBILITY.
       CURRENT SKY AND/OR WEATHER CONDITIONS ARE NOT AVAILABLE FOR
       CHILLICOTHE AND FARMINGTON.

MOZ001>031-035>038-043-044-053-054-251000-
...NORTHERN AND WESTERN MISSOURI...

CITY           SKY/WX    TMP DP  RH WIND       PRES   REMARKS
KANSAS CTY INT PTCLDY    61  50  67 W8        30.22R
KANSAS C DTWN  CLEAR     66  52  60 CALM      30.21R
LEE`S SUMMIT   PTCLDY    65  51  60 W7        30.23R
ST JOSEPH      CLEAR     55  50  83 CALM      30.22R
CHILLICOTHE      N/A     55  51  86 CALM      30.21R
KIRKSVILLE     PTCLDY    51  49  92 NW3       30.19R

$$
MOZ066>068-077>081-088>096-101>105-251000-
...SOUTHWEST MISSOURI...

CITY           SKY/WX    TMP DP  RH WIND       PRES   REMARKS
SPRINGFIELD    PTCLDY    61  54  77 S3        30.25R
JOPLIN         CLOUDY    63  60  90 S3        30.26R
BRANSON        CLOUDY    61  54  77 CALM      30.27R

$$
MOZ032>034-039>042-045>050-055>058-069>072-251000-
...CENTRAL MISSOURI...

CITY           SKY/WX    TMP DP  RH WIND       PRES   REMARKS
COLUMBIA       PTCLDY    60  49  66 SW6       30.19S
JEFFERSON CITY PTCLDY    61  51  70 CALM      30.19S
ROLLA          PTCLDY    55  50  83 SW10      30.20S
SEDALIA        MOCLDY    61  54  77 SW9       30.22R
WHITEMAN AFB   CLOUDY    64  50  60 SW7       30.20R
WARRENSBURG    CLOUDY    61  50  67 SW6       30.21S
OSAGE BEACH    CLEAR     53  51  93 CALM      30.23S

$$
MOZ051-052-059>065-251000-
...EAST CENTRAL MISSOURI...

CITY           SKY/WX    TMP DP  RH WIND       PRES   REMARKS
ST LOUIS INTL  PTCLDY    65  47  52 SW9       30.17R
SPIRIT OF STL  PTCLDY    55  51  86 W5        30.17R
ST CHARLES     PTCLDY    61  50  67 CALM      30.16R

$$
MOZ072>076-082>087-097>100-106>115-251000-
...SOUTH CENTRAL AND SOUTHEAST MISSOURI...

CITY           SKY/WX    TMP DP  RH WIND       PRES   REMARKS
CAPE GIRARDEAU PTCLDY    57  54  89 CALM      30.18F
FARMINGTON     PTCLDY    52  51  97 CALM      30.21S
POPLAR BLUFF   CLEAR     60  58  92 NW3       30.19S
WEST PLAINS    PTCLDY    58  50  75 CALM      30.25R

$$




USA.gov is the U.S. government's official web portal to all federal, state and local government web resources and services.